This demonstration page uses our WeatherBlox Daily Observations layout. Learn more.

Left ArrowRight Arrow

34.02893, -84.19858

Hourly Observations for May 21, 2015

Temp ( °F °C ) Dew Point ( °F °C ) Humidity (%) Winds ( mph kmh ) Pressure ( in mb ) Visibility ( mi km ) Precip ( " mm )
12:53 am 00:53 Mostly Cloudy 75 23.9 66 18.9 74 74 W 7 11 29.88 1012 8 13 0.00 0.00
1:53 am 01:53 Clear 73 22.8 66 18.9 79 79 W 8 13 29.87 1012 8 13 0.00 0.00
2:53 am 02:53 Clear 71 21.7 65 18.3 81 81 W 7 11 29.86 1011 9 14 0.00 0.00
3:18 am 03:18 Mostly Cloudy 71 21.7 64 17.8 79 79 W 9 15 29.88 1012 9 14 0.00 0.00
3:53 am 03:53 Cloudy 71 21.7 64 17.8 79 79 WNW 12 19 29.86 1011 10 16 0.00 0.00
4:53 am 04:53 Cloudy 70 21.1 62 16.7 76 76 W 9 15 29.86 1011 10 16 0.00 0.00
5:21 am 05:21 Partly Cloudy 69 20.6 62 16.7 78 78 WNW 13 20 29.88 1012 10 16 0.00 0.00
5:53 am 05:53 Mostly Clear 68 20 62 16.7 81 81 W 9 15 29.87 1012 10 16 0.00 0.00
6:53 am 06:53 Sunny 67 19.4 60 15.6 79 79 W 9 15 29.90 1013 10 16 0.00 0.00
7:53 am 07:53 Mostly Sunny 69 20.6 60 15.6 73 73 W 15 24 29.92 1013 9 14 0.00 0.00
8:45 am 08:45 Mostly Cloudy 71 21.7 60 15.6 68 68 NW 13 20 29.94 1014 9 14 0.00 0.00
8:53 am 08:53 Mostly Cloudy 71 21.7 60 15.6 68 68 WNW 16 26 29.94 1014 9 14 0.00 0.00
9:36 am 09:36 Mostly Cloudy 72 22 59 15 65 65 NW 15 24 29.97 1015 9 14 0.00 0.00
9:45 am 09:45 Partly Cloudy 71 21.7 59 15 66 66 WNW 14 22 29.97 1015 9 14 0.00 0.00
9:53 am 09:53 Partly Cloudy 73 22.8 59 15 62 62 NNW 12 19 29.94 1014 9 14 0.00 0.00
10:03 am 10:03 Mostly Cloudy 72 22 57 14 61 61 NW 14 22 29.97 1015 9 14 0.00 0.00
10:10 am 10:10 Partly Cloudy 73 23 57 14 57 57 WNW 15 24 29.97 1015 9 14 0.00 0.00
10:53 am 10:53 Mostly Cloudy 74 23.3 58 14.4 57 57 W 12 19 29.96 1014 9 14 0.00 0.00
11:53 am 11:53 Partly Cloudy 75 23.9 58 14.4 55 55 WNW 17 28 29.96 1014 9 14 0.00 0.00
12:53 pm 12:53 Mostly Sunny 77 25 58 14.4 52 52 WNW 15 24 29.94 1014 9 14 0.00 0.00
1:53 pm 13:53 Partly Cloudy 78 25.6 59 15 52 52 NW 13 20 29.93 1013 9 14 0.00 0.00
2:53 pm 14:53 Mostly Sunny 78 25.6 59 15 52 52 NW 14 22 29.93 1014 9 14 0.00 0.00
3:53 pm 15:53 Partly Cloudy 77 25 58 14.4 52 52 W 15 24 29.94 1014 9 14 0.00 0.00
4:53 pm 16:53 Mostly Cloudy 76 24.4 58 14.4 54 54 WNW 14 22 29.93 1014 9 14 0.00 0.00
5:53 pm 17:53 Mostly Sunny 76 24.4 57 13.9 52 52 WNW 21 33 29.95 1014 9 14 0.00 0.00
6:53 pm 18:53 Mostly Sunny 72 22.2 55 12.8 55 55 WNW 14 22 29.95 1014 10 16 0.00 0.00
7:53 pm 19:53 Mostly Sunny 67 19.4 54 12.2 63 63 WNW 16 26 29.98 1015 9 14 0.00 0.00
8:53 pm 20:53 Mostly Clear 64 17.8 52 11.1 65 65 NW 14 22 30.01 1016 9 14 0.00 0.00
9:53 pm 21:53 Cloudy 61 16.1 51 10.6 70 70 NNW 13 20 30.03 1017 9 14 0.00 0.00
10:53 pm 22:53 Cloudy 60 15.6 48 8.9 65 65 NW 15 24 30.06 1018 9 14 0.00 0.00
11:00 pm 23:00 Cloudy 59 15 48 9 68 68 NNW 10 17 30.09 1019 9 14 0.00 0.00
11:53 pm 23:53 Partly Cloudy 57 13.9 47 8.3 69 69 NW 13 20 30.08 1019 8 13 0.00 0.00

Powered by AerisWeather